Regional Weather Roundup
Issued by NWS

Home | Current Version | Previous Version | Text Only | Print | Product List | Glossary On
Versions: 1 2 3 4 5 6 7 8 9 10 11 12 13 14 15 16 17 18 19 20 21 22 23 24 25 26 27 28 29 30 31 32 33 34 35 36 37 38 39 40 41 42 43 44 45 46 47 48 49 50
602
ASUS43 KLSX 220307
RWRMO

WEATHER SUMMARY FOR MISSOURI
NATIONAL WEATHER SERVICE SPRINGFIELD MO
900 PM CST TUE NOV 21 2017

NOTE: "FAIR" INDICATES FEW OR NO CLOUDS BELOW 12,000 FEET WITH NO
       SIGNIFICANT WEATHER AND/OR OBSTRUCTIONS TO VISIBILITY.
       CURRENT SKY AND/OR WEATHER CONDITIONS ARE NOT AVAILABLE FOR
       CHILLICOTHE AND FARMINGTON.

MOZ001>031-035>038-043-044-053-054-220400-
...NORTHERN AND WESTERN MISSOURI...

CITY           SKY/WX    TMP DP  RH WIND       PRES   REMARKS
KANSAS CTY INT CLEAR     28  16  60 N12       30.36R WCI  18
KANSAS C DTWN  CLEAR     32  16  51 NW8       30.38R WCI  25
LEE`S SUMMIT   CLEAR     31  17  56 NW13      30.37R WCI  21
ST JOSEPH      CLEAR     27  15  61 N10       30.39R WCI  17
CHILLICOTHE      N/A     30  16  56 NW8       30.36R WCI  22
KIRKSVILLE     CLEAR     29  18  63 NW9       30.32R WCI  20

$$
MOZ066>068-077>081-088>096-101>105-220400-
...SOUTHWEST MISSOURI...

CITY           SKY/WX    TMP DP  RH WIND       PRES   REMARKS
SPRINGFIELD    CLEAR     39  19  44 N9G21     30.25R
JOPLIN         CLEAR     37  19  48 N14       30.31R WCI  28
BRANSON        CLEAR     43  23  45 N8        30.23R

$$
MOZ032>034-039>042-045>050-055>058-069>072-220400-
...CENTRAL MISSOURI...

CITY           SKY/WX    TMP DP  RH WIND       PRES   REMARKS
COLUMBIA       CLEAR     32  19  58 N12       30.30R WCI  23
JEFFERSON CITY CLEAR     36  19  50 N10       30.31R WCI  28
ROLLA          CLEAR     35  20  54 N15       30.26R WCI  25
SEDALIA        CLEAR     33  22  63 N8        30.34R WCI  26
WHITEMAN AFB   CLEAR     30  18  59 N8        30.30R WCI  23
WARRENSBURG    CLEAR     32  19  59 NW7       30.35R WCI  26
OSAGE BEACH    CLEAR     36  19  50 N12G21    30.31R WCI  28

$$
MOZ051-052-059>065-220400-
...EAST CENTRAL MISSOURI...

CITY           SKY/WX    TMP DP  RH WIND       PRES   REMARKS
ST LOUIS INTL  CLEAR     33  21  61 N10       30.26R WCI  25
SPIRIT OF STL  CLEAR     35  20  54 N13G18    30.27R WCI  26
ST CHARLES     CLEAR     33  20  58 NW12      30.27R WCI  24

$$
MOZ072>076-082>087-097>100-106>115-220400-
...SOUTH CENTRAL AND SOUTHEAST MISSOURI...

CITY           SKY/WX    TMP DP  RH WIND       PRES   REMARKS
CAPE GIRARDEAU CLEAR     43  25  49 N8        30.17R
FARMINGTON     CLEAR     40  22  48 N12       30.20R
POPLAR BLUFF   CLEAR     48  24  39 N18       30.16R
WEST PLAINS    CLEAR     43  24  47 N7        30.20R

$$



USA.gov is the U.S. government's official web portal to all federal, state and local government web resources and services.